Location: Unspecified
(42.9300°N, 71.1866°W)
Time: 04:21:30
(UTC-04:00)

Cosmos 1674 - Visible Passes

Search period start: 31 October 2014 00:00
Search period end: 09 November 2014 23:00
Orbit: 514 x 540 km, 82.5° (Epoch: 29 October)

Date Brightness Start Highest point End Pass type
(mag) Time Alt. Az. Time Alt. Az. Time Alt. Az.
31 Oct 5.9 04:09:01 12° NE 04:09:01 12° NE 04:09:26 10° NE visible
31 Oct 4.4 05:44:20 19° NNW 05:44:20 19° NNW 05:45:51 10° NNW visible
01 Nov 5.1 05:34:00 12° NNW 05:34:00 12° NNW 05:34:26 10° N visible
